RYS861 EPKT-LGKO

Flight info

Callsign RYS861
Flight time 2h 14m
Altitude 33000
Route REGTO DCT RAZEC DCT KEKED/N0437F370 DCT LOMOS DCT OTKOK N127 NIKTI DCT STINO DCT MES UN139 OKORO N139 LURUS L995 KOPAR
Aircraft B738/M-SDE3FGIJ1LRWY/SB1

Departure

Time 2026-05-05 08:16
Airport Katowice Wojciech Korfanty International Airport (EPKT)

Arrival

Time 2026-05-05 10:30
Airport Kos International Airport "Ippokratis" (LGKO)
Time Latitude Longitude Altitude Speed Heading
2026-05-05 07:17 50.47143 19.07965 992 ft 0 kts 180°
2026-05-05 08:08 50.47167 19.07966 1005 ft 4 kts 182°
2026-05-05 08:08 50.47194 19.07967 1005 ft 4 kts 180°
2026-05-05 08:08 50.47220 19.07965 1004 ft 4 kts 159°
2026-05-05 08:08 50.47234 19.07949 1004 ft 1 kts 90°
2026-05-05 08:09 50.47234 19.07948 1004 ft 0 kts 90°
2026-05-05 08:12 50.47234 19.07971 1005 ft 5 kts 90°
2026-05-05 08:12 50.47234 19.08059 1007 ft 11 kts 90°
2026-05-05 08:12 50.47233 19.08195 1011 ft 14 kts 90°
2026-05-05 08:12 50.47233 19.08349 1012 ft 15 kts 90°
2026-05-05 08:13 50.47232 19.08508 1011 ft 14 kts 90°
2026-05-05 08:13 50.47232 19.08661 1011 ft 14 kts 90°
2026-05-05 08:13 50.47232 19.08816 1012 ft 16 kts 90°
2026-05-05 08:13 50.47231 19.09014 1013 ft 20 kts 90°
2026-05-05 08:14 50.47231 19.09235 1015 ft 20 kts 90°
2026-05-05 08:14 50.47277 19.09384 1016 ft 16 kts
2026-05-05 08:14 50.47386 19.09386 1019 ft 15 kts
2026-05-05 08:14 50.47493 19.09389 1019 ft 16 kts
2026-05-05 08:15 50.47594 19.09360 1019 ft 14 kts 299°
2026-05-05 08:15 50.47598 19.09275 1018 ft 2 kts 270°
2026-05-05 08:15 50.47598 19.09136 1014 ft 39 kts 269°
2026-05-05 08:15 50.47600 19.08314 1008 ft 109 kts 270°
2026-05-05 08:16 50.47600 19.06794 997 ft 166 kts 269°
2026-05-05 08:16 50.47624 19.04865 1480 ft 182 kts 268°
2026-05-05 08:16 50.47656 19.02994 2640 ft 158 kts 265°
2026-05-05 08:16 50.47667 19.01234 3372 ft 172 kts 263°
2026-05-05 08:17 50.47712 18.99177 3781 ft 199 kts 264°
2026-05-05 08:17 50.47675 18.96929 4160 ft 213 kts 257°
2026-05-05 08:17 50.47154 18.94801 4641 ft 212 kts 224°
2026-05-05 08:17 50.45873 18.93601 4864 ft 233 kts 195°
2026-05-05 08:18 50.44205 18.93574 5437 ft 247 kts 169°
2026-05-05 08:18 50.42637 18.94844 6170 ft 262 kts 144°
2026-05-05 08:18 50.41285 18.96866 6808 ft 272 kts 137°
2026-05-05 08:18 50.40012 18.99080 7580 ft 274 kts 135°
2026-05-05 08:19 50.38750 19.01343 8393 ft 277 kts 135°
2026-05-05 08:19 50.37476 19.03625 9180 ft 279 kts 135°
2026-05-05 08:19 50.36187 19.05917 9945 ft 282 kts 135°
2026-05-05 08:19 50.34856 19.08260 10357 ft 297 kts 135°
2026-05-05 08:20 50.33418 19.10765 10539 ft 320 kts 135°
2026-05-05 08:20 50.31897 19.13406 10988 ft 331 kts 135°
2026-05-05 08:20 50.30342 19.16107 11644 ft 335 kts 136°
2026-05-05 08:20 50.28768 19.18829 12324 ft 339 kts 136°
2026-05-05 08:21 50.27175 19.21576 12968 ft 343 kts 136°
2026-05-05 08:21 50.25581 19.24318 13644 ft 347 kts 136°
2026-05-05 08:21 50.23950 19.27116 14245 ft 350 kts 136°
2026-05-05 08:21 50.22299 19.29944 14795 ft 355 kts 136°
2026-05-05 08:22 50.20622 19.32813 15353 ft 359 kts 136°
2026-05-05 08:22 50.18930 19.35705 15925 ft 362 kts 136°
2026-05-05 08:22 50.17219 19.38624 16487 ft 366 kts 136°
2026-05-05 08:22 50.15493 19.41565 17038 ft 370 kts 136°
2026-05-05 08:23 50.13740 19.44551 17590 ft 374 kts 136°
2026-05-05 08:23 50.11975 19.47553 18138 ft 378 kts 136°
2026-05-05 08:23 50.10187 19.50590 18611 ft 382 kts 136°
2026-05-05 08:23 50.08386 19.53645 19148 ft 383 kts 136°
2026-05-05 08:24 50.06580 19.56708 19655 ft 385 kts 136°
2026-05-05 08:24 50.04759 19.59788 20123 ft 389 kts 135°
2026-05-05 08:24 50.02921 19.62895 20573 ft 392 kts 135°
2026-05-05 08:24 50.01093 19.65983 21055 ft 394 kts 135°
2026-05-05 08:25 49.99224 19.69135 21519 ft 396 kts 135°
2026-05-05 08:25 49.97347 19.72298 21976 ft 399 kts 135°
2026-05-05 08:25 49.95457 19.75478 22425 ft 402 kts 135°
2026-05-05 08:25 49.93552 19.78678 22864 ft 404 kts 134°
2026-05-05 08:26 49.91635 19.81895 23282 ft 407 kts 134°
2026-05-05 08:26 49.89708 19.85124 23668 ft 409 kts 134°
2026-05-05 08:26 49.87765 19.88374 24024 ft 412 kts 134°
2026-05-05 08:26 49.85812 19.91640 24382 ft 414 kts 134°
2026-05-05 08:27 49.83875 19.94873 24725 ft 416 kts 134°
2026-05-05 08:27 49.81902 19.98164 25064 ft 418 kts 134°
2026-05-05 08:27 49.79915 20.01472 25383 ft 420 kts 134°
2026-05-05 08:27 49.77917 20.04794 25704 ft 422 kts 134°
2026-05-05 08:28 49.76588 20.07003 25909 ft 423 kts 134°
2026-05-05 08:28 49.74572 20.10348 26225 ft 426 kts 134°
2026-05-05 08:28 49.72538 20.13719 26525 ft 428 kts 134°
2026-05-05 08:28 49.70499 20.17093 26832 ft 430 kts 134°
2026-05-05 08:29 49.68448 20.20483 27119 ft 432 kts 134°
2026-05-05 08:29 49.66388 20.23886 27407 ft 434 kts 134°
2026-05-05 08:29 49.64318 20.27298 27683 ft 437 kts 134°
2026-05-05 08:30 49.60173 20.34118 28229 ft 441 kts 134°
2026-05-05 08:30 49.58067 20.37576 28500 ft 443 kts 134°
2026-05-05 08:30 49.55951 20.41043 28753 ft 444 kts 134°
2026-05-05 08:30 49.53825 20.44525 28999 ft 446 kts 134°
2026-05-05 08:31 49.51690 20.48017 29235 ft 448 kts 134°
2026-05-05 08:31 49.49547 20.51516 29462 ft 451 kts 134°
2026-05-05 08:31 49.47389 20.55036 29644 ft 453 kts 134°
2026-05-05 08:31 49.45222 20.58568 29875 ft 455 kts 134°
2026-05-05 08:32 49.43045 20.62110 30089 ft 457 kts 134°
2026-05-05 08:32 49.40861 20.65658 30291 ft 457 kts 135°
2026-05-05 08:32 49.38652 20.69181 30454 ft 459 kts 136°
2026-05-05 08:32 49.36372 20.72625 30645 ft 460 kts 137°
2026-05-05 08:33 49.34056 20.76036 30812 ft 461 kts 137°
2026-05-05 08:33 49.31767 20.79394 31018 ft 461 kts 137°
2026-05-05 08:33 49.29453 20.82806 31223 ft 462 kts 137°
2026-05-05 08:33 49.27146 20.86227 31441 ft 462 kts 137°
2026-05-05 08:34 49.24841 20.89656 31637 ft 462 kts 137°
2026-05-05 08:34 49.22529 20.93097 31832 ft 462 kts 137°
2026-05-05 08:34 49.20224 20.96526 32041 ft 463 kts 137°
2026-05-05 08:34 49.17917 20.99951 32270 ft 462 kts 137°
2026-05-05 08:35 49.15610 21.03366 32530 ft 461 kts 137°
2026-05-05 08:35 49.13173 21.06516 32723 ft 459 kts 147°
2026-05-05 08:35 49.10413 21.08937 32930 ft 456 kts 157°
2026-05-05 08:35 49.07456 21.10643 33131 ft 453 kts 167°
2026-05-05 08:36 49.04387 21.11703 33292 ft 452 kts 170°
2026-05-05 08:36 49.01303 21.12687 33445 ft 453 kts 170°
2026-05-05 08:36 48.98206 21.13681 33600 ft 454 kts 170°
2026-05-05 08:36 48.95228 21.14656 33793 ft 454 kts 169°
2026-05-05 08:37 48.92340 21.15617 33971 ft 453 kts 169°
2026-05-05 08:37 48.89262 21.16653 34144 ft 453 kts 169°
2026-05-05 08:37 48.86185 21.17696 34294 ft 453 kts 169°
2026-05-05 08:37 48.83110 21.18739 34407 ft 453 kts 169°
2026-05-05 08:38 48.80031 21.19782 34549 ft 453 kts 169°
2026-05-05 08:38 48.76957 21.20822 34705 ft 452 kts 169°
2026-05-05 08:38 48.73883 21.21859 34854 ft 452 kts 169°
2026-05-05 08:38 48.70814 21.22891 34994 ft 451 kts 169°
2026-05-05 08:39 48.67787 21.23909 35108 ft 451 kts 169°
2026-05-05 08:39 48.64717 21.24940 35228 ft 451 kts 169°
2026-05-05 08:39 48.61653 21.25968 35373 ft 450 kts 169°
2026-05-05 08:39 48.58589 21.26996 35503 ft 450 kts 169°
2026-05-05 08:40 48.55528 21.28020 35614 ft 450 kts 169°
2026-05-05 08:40 48.52467 21.29049 35719 ft 450 kts 168°
2026-05-05 08:40 48.49440 21.30262 35838 ft 450 kts 165°
2026-05-05 08:40 48.46472 21.31590 35958 ft 450 kts 164°
2026-05-05 08:41 48.43477 21.32985 36071 ft 450 kts 163°
2026-05-05 08:41 48.37490 21.35793 36268 ft 450 kts 164°
2026-05-05 08:42 48.31502 21.38554 36478 ft 449 kts 164°
2026-05-05 08:42 48.25513 21.41274 36632 ft 450 kts 164°
2026-05-05 08:42 48.22517 21.42628 36733 ft 450 kts 164°
2026-05-05 08:43 48.19524 21.43978 36853 ft 449 kts 164°
2026-05-05 08:43 48.16568 21.45309 36967 ft 447 kts 164°
2026-05-05 08:43 48.13585 21.46652 37032 ft 447 kts 164°
2026-05-05 08:44 48.07598 21.49341 37044 ft 449 kts 164°
2026-05-05 08:44 48.01637 21.52013 37049 ft 450 kts 164°
2026-05-05 08:45 47.95620 21.54704 37053 ft 452 kts 164°
2026-05-05 08:45 47.89580 21.57398 37051 ft 453 kts 164°
2026-05-05 08:46 47.83569 21.60073 37041 ft 454 kts 164°
2026-05-05 08:46 47.77492 21.62771 37041 ft 454 kts 164°
2026-05-05 08:47 47.71462 21.65442 37039 ft 454 kts 164°
2026-05-05 08:47 47.65395 21.68123 37044 ft 454 kts 164°
2026-05-05 08:48 47.59361 21.70782 37047 ft 454 kts 164°
2026-05-05 08:48 47.53290 21.73451 37046 ft 453 kts 164°
2026-05-05 08:49 47.47276 21.76089 37053 ft 453 kts 164°
2026-05-05 08:49 47.41216 21.78740 37041 ft 453 kts 164°
2026-05-05 08:50 47.35200 21.81367 37039 ft 452 kts 164°
2026-05-05 08:50 47.29154 21.83999 37042 ft 452 kts 164°
2026-05-05 08:51 47.23148 21.86608 37043 ft 451 kts 164°
2026-05-05 08:51 47.17120 21.89221 37043 ft 452 kts 164°
2026-05-05 08:52 47.11077 21.91833 37054 ft 452 kts 164°
2026-05-05 08:52 47.05079 21.94422 37049 ft 452 kts 164°
2026-05-05 08:53 46.99029 21.97025 37055 ft 453 kts 164°
2026-05-05 08:53 46.92968 21.99627 37047 ft 454 kts 164°
2026-05-05 08:54 46.86887 22.02231 37046 ft 455 kts 164°
2026-05-05 08:54 46.80831 22.04819 37044 ft 455 kts 164°
2026-05-05 08:55 46.74737 22.07417 37037 ft 456 kts 164°
2026-05-05 08:55 46.68671 22.09998 37046 ft 456 kts 164°
2026-05-05 08:56 46.62547 22.12595 37041 ft 457 kts 164°
2026-05-05 08:56 46.56459 22.15173 37041 ft 457 kts 164°
2026-05-05 08:57 46.50372 22.17743 37045 ft 457 kts 164°
2026-05-05 08:57 46.44246 22.20324 37049 ft 457 kts 164°
2026-05-05 08:58 46.38121 22.22900 37044 ft 458 kts 164°
2026-05-05 08:58 46.32018 22.25459 37051 ft 458 kts 164°
2026-05-05 08:59 46.25883 22.28025 37047 ft 458 kts 164°
2026-05-05 08:59 46.19781 22.30572 37051 ft 458 kts 164°
2026-05-05 09:00 46.13640 22.33130 37042 ft 458 kts 164°
2026-05-05 09:00 46.07549 22.35661 37040 ft 457 kts 164°
2026-05-05 09:01 46.01427 22.38198 37057 ft 457 kts 164°
2026-05-05 09:01 45.95315 22.40726 37065 ft 457 kts 164°
2026-05-05 09:02 45.89245 22.43231 37056 ft 457 kts 164°
2026-05-05 09:02 45.83114 22.45755 37060 ft 457 kts 164°
2026-05-05 09:03 45.77022 22.48257 37052 ft 457 kts 164°
2026-05-05 09:03 45.70898 22.50767 37050 ft 457 kts 164°
2026-05-05 09:04 45.64786 22.53266 37062 ft 457 kts 164°
2026-05-05 09:04 45.58702 22.55748 37060 ft 457 kts 164°
2026-05-05 09:05 45.52565 22.58246 37060 ft 458 kts 164°
2026-05-05 09:05 45.46465 22.60723 37059 ft 458 kts 164°
2026-05-05 09:06 45.40321 22.63213 37062 ft 458 kts 164°
2026-05-05 09:06 45.34161 22.65703 37061 ft 459 kts 164°
2026-05-05 09:07 45.28054 22.68165 37088 ft 458 kts 164°
2026-05-05 09:07 45.21899 22.70643 37058 ft 459 kts 164°
2026-05-05 09:08 45.15738 22.73118 37072 ft 459 kts 164°
2026-05-05 09:08 45.09615 22.75571 37068 ft 459 kts 164°
2026-05-05 09:09 45.03456 22.78033 37078 ft 460 kts 164°
2026-05-05 09:09 44.97286 22.80494 37075 ft 461 kts 164°
2026-05-05 09:10 44.91147 22.82937 37061 ft 462 kts 164°
2026-05-05 09:10 44.84938 22.85403 37065 ft 463 kts 164°
2026-05-05 09:11 44.78753 22.87853 37061 ft 464 kts 164°
2026-05-05 09:11 44.72527 22.90315 37059 ft 464 kts 165°
2026-05-05 09:12 44.66289 22.92775 37058 ft 465 kts 165°
2026-05-05 09:12 44.60083 22.95217 37057 ft 465 kts 165°
2026-05-05 09:13 44.53834 22.97671 37062 ft 466 kts 165°
2026-05-05 09:13 44.47623 23.00105 37055 ft 466 kts 165°
2026-05-05 09:14 44.41376 23.02547 37060 ft 466 kts 165°
2026-05-05 09:14 44.35131 23.04983 37057 ft 466 kts 165°
2026-05-05 09:15 44.28883 23.07415 37065 ft 466 kts 165°
2026-05-05 09:15 44.22659 23.09833 37053 ft 466 kts 165°
2026-05-05 09:16 44.16405 23.12256 37060 ft 465 kts 165°
2026-05-05 09:16 44.10159 23.14672 37063 ft 465 kts 165°
2026-05-05 09:17 44.03953 23.17066 37062 ft 465 kts 165°
2026-05-05 09:17 43.97700 23.19474 37068 ft 465 kts 165°
2026-05-05 09:18 43.92494 23.21474 37064 ft 466 kts 165°
2026-05-05 09:18 43.86238 23.23874 37064 ft 466 kts 165°
2026-05-05 09:19 43.78983 23.26753 37066 ft 467 kts 163°
2026-05-05 09:19 43.73773 23.29004 37066 ft 468 kts 163°
2026-05-05 09:20 43.67592 23.31695 37068 ft 468 kts 163°
2026-05-05 09:20 43.61358 23.34377 37067 ft 469 kts 163°
2026-05-05 09:21 43.55157 23.37019 37065 ft 469 kts 163°
2026-05-05 09:21 43.48904 23.39673 37076 ft 469 kts 163°
2026-05-05 09:22 43.42657 23.42318 37068 ft 470 kts 163°
2026-05-05 09:22 43.36424 23.44953 37071 ft 470 kts 163°
2026-05-05 09:23 43.30144 23.47602 37075 ft 471 kts 163°
2026-05-05 09:23 43.23909 23.50227 37076 ft 471 kts 163°
2026-05-05 09:24 43.17620 23.52869 37078 ft 472 kts 163°
2026-05-05 09:24 43.11336 23.55503 37074 ft 472 kts 163°
2026-05-05 09:25 43.05075 23.58121 37095 ft 472 kts 163°
2026-05-05 09:25 42.98792 23.60744 37081 ft 472 kts 163°
2026-05-05 09:26 42.92600 23.63323 37093 ft 471 kts 163°
2026-05-05 09:26 42.86555 23.65835 37089 ft 471 kts 163°
2026-05-05 09:27 42.80302 23.68429 37094 ft 471 kts 163°
2026-05-05 09:27 42.74017 23.71031 37092 ft 471 kts 163°
2026-05-05 09:28 42.67768 23.73611 37100 ft 471 kts 164°
2026-05-05 09:28 42.61483 23.76201 37104 ft 471 kts 164°
2026-05-05 09:29 42.55198 23.78786 37087 ft 471 kts 164°
2026-05-05 09:29 42.48953 23.81349 37091 ft 471 kts 164°
2026-05-05 09:30 42.42667 23.83923 37085 ft 471 kts 164°
2026-05-05 09:30 42.36384 23.86491 37094 ft 471 kts 164°
2026-05-05 09:31 42.30141 23.89037 37083 ft 471 kts 164°
2026-05-05 09:31 42.23845 23.91600 37083 ft 471 kts 164°
2026-05-05 09:32 42.17597 23.94138 37082 ft 471 kts 164°
2026-05-05 09:32 42.11301 23.96690 37084 ft 472 kts 164°
2026-05-05 09:33 42.05006 23.99238 37070 ft 472 kts 164°
2026-05-05 09:33 41.98732 24.01694 37082 ft 472 kts 168°
2026-05-05 09:34 41.92267 24.03318 37084 ft 471 kts 172°
2026-05-05 09:34 41.85809 24.04749 37069 ft 472 kts 172°
2026-05-05 09:35 41.79331 24.06260 37077 ft 471 kts 171°
2026-05-05 09:35 41.69668 24.08587 37067 ft 471 kts 171°
2026-05-05 09:36 41.63199 24.10142 37061 ft 472 kts 171°
2026-05-05 09:36 41.56771 24.11681 37068 ft 471 kts 171°
2026-05-05 09:37 41.50460 24.14157 37079 ft 473 kts 159°
2026-05-05 09:37 41.44375 24.17403 37056 ft 473 kts 159°
2026-05-05 09:38 41.38249 24.20659 37063 ft 472 kts 159°
2026-05-05 09:38 41.32112 24.23860 37056 ft 473 kts 160°
2026-05-05 09:39 41.25998 24.27017 37053 ft 473 kts 160°
2026-05-05 09:39 41.19849 24.30181 37062 ft 473 kts 160°
2026-05-05 09:40 41.13695 24.33342 37063 ft 474 kts 160°
2026-05-05 09:40 41.07565 24.36486 37072 ft 474 kts 160°
2026-05-05 09:41 41.01399 24.39643 37073 ft 474 kts 160°
2026-05-05 09:41 40.95232 24.42795 37076 ft 474 kts 160°
2026-05-05 09:42 40.89107 24.45919 37078 ft 474 kts 160°
2026-05-05 09:42 40.82944 24.49055 37075 ft 474 kts 160°
2026-05-05 09:43 40.76812 24.52169 37079 ft 474 kts 160°
2026-05-05 09:43 40.70638 24.55299 37086 ft 475 kts 160°
2026-05-05 09:44 40.64450 24.58430 37076 ft 475 kts 160°
2026-05-05 09:44 40.58297 24.61537 37084 ft 476 kts 160°
2026-05-05 09:45 40.52102 24.64659 37091 ft 476 kts 160°
2026-05-05 09:45 40.45911 24.67772 37093 ft 476 kts 160°
2026-05-05 09:46 40.39743 24.70868 37083 ft 477 kts 160°
2026-05-05 09:46 40.33542 24.73974 37087 ft 477 kts 160°
2026-05-05 09:47 40.27335 24.77078 37088 ft 477 kts 160°
2026-05-05 09:47 40.21125 24.80176 37087 ft 477 kts 160°
2026-05-05 09:48 40.14946 24.83253 37086 ft 477 kts 160°
2026-05-05 09:48 40.08733 24.86341 37084 ft 476 kts 160°
2026-05-05 09:49 40.02568 24.89399 37085 ft 476 kts 160°
2026-05-05 09:49 39.96359 24.92474 37078 ft 476 kts 160°
2026-05-05 09:50 39.90203 24.95516 37082 ft 476 kts 160°
2026-05-05 09:50 39.83993 24.98578 37081 ft 476 kts 160°
2026-05-05 09:51 39.77802 25.01626 37080 ft 475 kts 160°
2026-05-05 09:51 39.71640 25.04654 37088 ft 475 kts 160°
2026-05-05 09:52 39.65437 25.07697 37085 ft 476 kts 160°
2026-05-05 09:52 39.59266 25.10722 37091 ft 476 kts 160°
2026-05-05 09:53 39.53199 25.14225 37095 ft 477 kts 155°
2026-05-05 09:53 39.47210 25.17939 37089 ft 477 kts 155°
2026-05-05 09:54 39.41244 25.21616 37089 ft 477 kts 155°
2026-05-05 09:54 39.35209 25.25283 37089 ft 478 kts 156°
2026-05-05 09:55 39.29217 25.28898 37089 ft 478 kts 156°
2026-05-05 09:55 39.23185 25.32528 37093 ft 478 kts 156°
2026-05-05 09:56 39.17150 25.36154 37094 ft 478 kts 156°
2026-05-05 09:56 39.11107 25.39780 37094 ft 478 kts 156°
2026-05-05 09:57 39.05109 25.43372 37095 ft 478 kts 156°
2026-05-05 09:57 38.99064 25.46985 37094 ft 478 kts 156°
2026-05-05 09:58 38.93025 25.50589 37097 ft 478 kts 156°
2026-05-05 09:58 38.87020 25.54165 37094 ft 478 kts 156°
2026-05-05 09:59 38.80985 25.57752 37097 ft 477 kts 156°
2026-05-05 09:59 38.74984 25.61312 36922 ft 479 kts 156°
2026-05-05 10:00 38.71949 25.63110 36630 ft 476 kts 156°
2026-05-05 10:00 38.68949 25.64886 36370 ft 470 kts 156°
2026-05-05 10:00 38.65993 25.66635 36102 ft 464 kts 156°
2026-05-05 10:00 38.63102 25.68344 35853 ft 462 kts 156°
2026-05-05 10:01 38.60178 25.70069 35611 ft 461 kts 156°
2026-05-05 10:01 38.57267 25.71785 35370 ft 460 kts 156°
2026-05-05 10:01 38.54366 25.73495 35129 ft 458 kts 156°
2026-05-05 10:01 38.51469 25.75200 34886 ft 457 kts 156°
2026-05-05 10:02 38.48579 25.76900 34648 ft 456 kts 156°
2026-05-05 10:02 38.45727 25.78576 34413 ft 455 kts 156°
2026-05-05 10:02 38.42843 25.80269 34174 ft 455 kts 156°
2026-05-05 10:02 38.39972 25.81954 33896 ft 451 kts 156°
2026-05-05 10:03 38.37141 25.83614 33547 ft 443 kts 156°
2026-05-05 10:03 38.34356 25.85246 33166 ft 437 kts 156°
2026-05-05 10:03 38.31612 25.86853 32799 ft 431 kts 156°
2026-05-05 10:03 38.28925 25.88424 32427 ft 426 kts 156°
2026-05-05 10:04 38.26246 25.89989 32072 ft 421 kts 156°
2026-05-05 10:04 38.23624 25.91670 31455 ft 423 kts 152°
2026-05-05 10:04 38.21052 25.93566 30779 ft 428 kts 149°
2026-05-05 10:04 38.18508 25.95528 30325 ft 426 kts 149°
2026-05-05 10:05 38.15994 25.97487 29945 ft 421 kts 149°
2026-05-05 10:05 38.13533 25.99396 29521 ft 416 kts 149°
2026-05-05 10:05 38.11073 26.01286 29064 ft 411 kts 150°
2026-05-05 10:05 38.08631 26.03147 28606 ft 407 kts 150°
2026-05-05 10:06 38.06205 26.04984 28144 ft 404 kts 150°
2026-05-05 10:06 38.03796 26.06799 27691 ft 400 kts 150°
2026-05-05 10:06 38.01408 26.08595 27262 ft 397 kts 150°
2026-05-05 10:06 37.99043 26.10371 26840 ft 393 kts 151°
2026-05-05 10:07 37.96727 26.12107 26423 ft 390 kts 151°
2026-05-05 10:07 37.94405 26.13847 26010 ft 386 kts 151°
2026-05-05 10:07 37.92094 26.15578 25590 ft 383 kts 151°
2026-05-05 10:07 37.89798 26.17295 25130 ft 382 kts 151°
2026-05-05 10:08 37.87519 26.19000 24784 ft 377 kts 151°
2026-05-05 10:08 37.85296 26.20661 24434 ft 373 kts 151°
2026-05-05 10:08 37.83076 26.22320 24091 ft 369 kts 151°
2026-05-05 10:08 37.80872 26.23965 23755 ft 365 kts 152°
2026-05-05 10:09 37.78699 26.25585 23371 ft 361 kts 152°
2026-05-05 10:09 37.77268 26.26651 23120 ft 358 kts 152°
2026-05-05 10:09 37.75135 26.28240 22765 ft 353 kts 152°
2026-05-05 10:09 37.73031 26.29807 22448 ft 347 kts 152°
2026-05-05 10:10 37.70984 26.31330 22114 ft 343 kts 152°
2026-05-05 10:10 37.68934 26.32854 21794 ft 339 kts 152°
2026-05-05 10:10 37.66901 26.34364 21486 ft 337 kts 151°
2026-05-05 10:10 37.64877 26.35866 21173 ft 338 kts 152°
2026-05-05 10:11 37.62813 26.37395 20877 ft 349 kts 152°
2026-05-05 10:11 37.60689 26.38968 20547 ft 356 kts 151°
2026-05-05 10:11 37.58583 26.40528 20185 ft 353 kts 151°
2026-05-05 10:11 37.56476 26.42090 19848 ft 350 kts 151°
2026-05-05 10:12 37.54388 26.43637 19523 ft 346 kts 151°
2026-05-05 10:12 37.52326 26.45162 19197 ft 342 kts 151°
2026-05-05 10:12 37.50278 26.46676 18873 ft 338 kts 151°
2026-05-05 10:12 37.48256 26.48171 18556 ft 335 kts 151°
2026-05-05 10:13 37.46254 26.49648 18222 ft 332 kts 151°
2026-05-05 10:13 37.44275 26.51108 17872 ft 328 kts 151°
2026-05-05 10:13 37.42309 26.52557 17545 ft 325 kts 151°
2026-05-05 10:13 37.40390 26.53970 17232 ft 321 kts 150°
2026-05-05 10:14 37.38456 26.55393 16935 ft 321 kts 150°
2026-05-05 10:14 37.36516 26.56820 16648 ft 324 kts 150°
2026-05-05 10:14 37.34540 26.58273 16346 ft 334 kts 150°
2026-05-05 10:14 37.32514 26.59761 16005 ft 337 kts 150°
2026-05-05 10:15 37.30525 26.61222 15677 ft 333 kts 149°
2026-05-05 10:15 37.28534 26.62683 15336 ft 330 kts 149°
2026-05-05 10:15 37.26552 26.64138 14995 ft 327 kts 149°
2026-05-05 10:15 37.24619 26.65555 14681 ft 323 kts 149°
2026-05-05 10:16 37.22687 26.66970 14371 ft 320 kts 148°
2026-05-05 10:16 37.20770 26.68374 14063 ft 317 kts 148°
2026-05-05 10:16 37.18871 26.69764 13740 ft 314 kts 148°
2026-05-05 10:16 37.16989 26.71140 13403 ft 311 kts 148°
2026-05-05 10:17 37.15150 26.72485 13100 ft 307 kts 148°
2026-05-05 10:17 37.13313 26.73827 12788 ft 303 kts 148°
2026-05-05 10:17 37.11497 26.75153 12493 ft 300 kts 147°
2026-05-05 10:17 37.09693 26.76471 12214 ft 301 kts 147°
2026-05-05 10:18 37.07870 26.77801 11931 ft 305 kts 147°
2026-05-05 10:18 37.06028 26.79146 11645 ft 312 kts 147°
2026-05-05 10:18 37.04142 26.80521 11328 ft 313 kts 147°
2026-05-05 10:18 37.02267 26.81885 11007 ft 309 kts 147°
2026-05-05 10:19 37.00437 26.83216 10705 ft 306 kts 147°
2026-05-05 10:19 36.98609 26.84545 10403 ft 302 kts 147°
2026-05-05 10:19 36.96800 26.85859 10138 ft 297 kts 147°
2026-05-05 10:19 36.95043 26.87134 9991 ft 288 kts 147°
2026-05-05 10:20 36.93323 26.88382 9680 ft 285 kts 147°
2026-05-05 10:20 36.91618 26.89620 9394 ft 281 kts 147°
2026-05-05 10:20 36.89936 26.90840 9122 ft 278 kts 147°
2026-05-05 10:20 36.88261 26.92056 8854 ft 280 kts 147°
2026-05-05 10:21 36.86588 26.93270 8592 ft 285 kts 147°
2026-05-05 10:21 36.84848 26.94533 8321 ft 292 kts 147°
2026-05-05 10:21 36.83082 26.95812 8018 ft 293 kts 147°
2026-05-05 10:21 36.81328 26.97080 7711 ft 289 kts 147°
2026-05-05 10:22 36.79593 26.98333 7414 ft 286 kts 146°
2026-05-05 10:22 36.77878 26.99572 7124 ft 283 kts 146°
2026-05-05 10:22 36.76176 27.00802 6855 ft 282 kts 146°
2026-05-05 10:22 36.74472 27.02033 6518 ft 282 kts 146°
2026-05-05 10:23 36.72787 27.03249 6243 ft 278 kts 146°
2026-05-05 10:23 36.71139 27.04437 5977 ft 275 kts 146°
2026-05-05 10:23 36.69500 27.05619 5740 ft 269 kts 146°
2026-05-05 10:23 36.67906 27.06768 5633 ft 261 kts 146°
2026-05-05 10:24 36.66337 27.07898 5367 ft 259 kts 146°
2026-05-05 10:24 36.64792 27.09011 5126 ft 254 kts 147°
2026-05-05 10:24 36.63340 27.10177 4917 ft 243 kts 139°
2026-05-05 10:24 36.62170 27.11618 4650 ft 228 kts 115°
2026-05-05 10:25 36.61808 27.13451 4239 ft 216 kts 83°
2026-05-05 10:25 36.62136 27.15227 3759 ft 207 kts 51°
2026-05-05 10:25 36.63127 27.16338 3606 ft 184 kts 23°
2026-05-05 10:25 36.64271 27.16933 3349 ft 177 kts 12°
2026-05-05 10:26 36.65465 27.17276 3102 ft 174 kts
2026-05-05 10:26 36.66679 27.17339 2823 ft 174 kts 356°
2026-05-05 10:26 36.67844 27.17187 2710 ft 165 kts 347°
2026-05-05 10:26 36.68948 27.16817 2495 ft 166 kts 340°
2026-05-05 10:27 36.70023 27.16267 2277 ft 168 kts 333°
2026-05-05 10:27 36.71057 27.15561 2000 ft 168 kts 330°
2026-05-05 10:27 36.72028 27.14819 1709 ft 158 kts 329°
2026-05-05 10:27 36.72929 27.14163 1485 ft 144 kts 328°
2026-05-05 10:28 36.73718 27.13528 1394 ft 130 kts 327°
2026-05-05 10:28 36.74488 27.12919 1162 ft 123 kts 331°
2026-05-05 10:28 36.75159 27.12411 1043 ft 113 kts 330°
2026-05-05 10:28 36.75819 27.11901 902 ft 111 kts 334°
2026-05-05 10:29 36.76488 27.11390 888 ft 116 kts 333°
2026-05-05 10:29 36.77183 27.10857 726 ft 121 kts 334°
2026-05-05 10:29 36.77904 27.10299 594 ft 122 kts 335°
2026-05-05 10:29 36.78625 27.09760 416 ft 119 kts 333°
2026-05-05 10:30 36.79255 27.09276 407 ft 82 kts 329°
2026-05-05 10:30 36.79614 27.08993 414 ft 50 kts 328°
2026-05-05 10:30 36.79858 27.08805 415 ft 37 kts 327°
2026-05-05 10:30 36.80051 27.08640 415 ft 31 kts 324°
2026-05-05 10:31 36.80220 27.08518 409 ft 26 kts 329°
2026-05-05 10:31 36.80353 27.08471 415 ft 15 kts 56°
2026-05-05 10:31 36.80339 27.08590 418 ft 14 kts 104°
2026-05-05 10:31 36.80303 27.08695 416 ft 13 kts 141°
2026-05-05 10:32 36.80230 27.08752 419 ft 12 kts 147°
2026-05-05 10:32 36.80157 27.08811 410 ft 13 kts 139°
2026-05-05 10:32 36.80165 27.08872 413 ft 7 kts 58°
2026-05-05 10:32 36.80177 27.08895 416 ft 0 kts 58°
2026-05-05 10:33 36.80180 27.08900 416 ft 0 kts 57°